Mathilde Maersk — OUJS2 — position and weather

sailwx.info

Track history (hours):
 
Tides and Currents Weather Stations Pressure Air Temp Water Temp Dewpoint Dewpoint Depression Visibility Wind Speed Wind Dir Waves Ship Positions

Mathilde Maersk

Last reported at 2014-Aug-22 21:20 UTC. Time now 2014-Aug-22 23:38 UTC.
Position N 38°11' W 009°58'.

Length 367 m; draft 12.2 m.

Type: Ship (hazmat cat B). MMSI: 220597990.

Date/timePositionNaut miles runAvg speedWind from/ knotsBaromVisibWave heightAir tempDewpointWater temp
2014-Aug-22 21:20N 38°11' W 009°58'  
2014-Aug-20 14:33N 50°24' W 000°19'2117.6
2014-Aug-20 13:23N 50°30' E 000°12'1518.2
2014-Aug-20 12:33N 50°36' E 000°33'1818.5
2014-Aug-20 11:33N 50°47' E 000°57'2017.8
2014-Aug-20 10:25N 51°01' E 001°21'1517.5
2014-Aug-20 09:34N 51°10' E 001°39'1716.5
2014-Aug-20 08:33N 51°23' E 001°57'1615.2
2014-Aug-20 07:29N 51°22' E 002°23'1516.3
2014-Aug-20 06:33N 51°25' E 002°47'1514.5
2014-Aug-20 05:33N 51°23' E 003°10'2 2.3
2014-Aug-20 04:32N 51°21' E 003°11'0 0.0
2014-Aug-20 03:31N 51°21' E 003°11'0 0.0
2014-Aug-20 02:31N 51°21' E 003°11'0 0.0
2014-Aug-20 01:31N 51°21' E 003°11'0 0.0
2014-Aug-20 00:28N 51°21' E 003°11'0 0.0
2014-Aug-19 23:32N 51°21' E 003°11'0 0.0
2014-Aug-19 22:31N 51°21' E 003°11'0 0.0
2014-Aug-19 20:28N 51°21' E 003°11'0 0.0
2014-Aug-19 19:10N 51°21' E 003°11'0 0.0
2014-Aug-19 18:32N 51°21' E 003°11'1 1.3
2014-Aug-19 17:33N 51°22' E 003°11'1211.7
2014-Aug-19 16:33N 51°22' E 002°52'7 7.2
2014-Aug-19 15:33N 51°25' E 002°42'1312.6
2014-Aug-19 14:33N 51°37' E 002°50'1312.8
2014-Aug-19 13:31N 51°45' E 003°07'1211.9
2014-Aug-19 12:33N 51°54' E 003°19'2110.4
2014-Aug-19 10:33N 52°04' E 003°49'1010.2
2014-Aug-19 09:33N 51°59' E 004°03'2 1.9
2014-Aug-19 08:31N 51°57' E 004°02'0 0.0
2014-Aug-19 07:31N 51°57' E 004°02'0 0.0
2014-Aug-19 06:31N 51°57' E 004°02'0 0.0
2014-Aug-19 05:28N 51°57' E 004°02'0 0.0
2014-Aug-19 04:31N 51°57' E 004°02'0 0.0
2014-Aug-19 03:31N 51°57' E 004°02'0 0.0
2014-Aug-19 02:31N 51°57' E 004°02'0 0.0
2014-Aug-19 01:31N 51°57' E 004°02'0 0.0
2014-Aug-19 00:31N 51°57' E 004°02'0 0.0
2014-Aug-18 23:25N 51°57' E 004°02'0 0.0
2014-Aug-18 22:31N 51°57' E 004°02'0 0.0
2014-Aug-18 21:28N 51°57' E 004°02'0 0.0
2014-Aug-18 20:25N 51°57' E 004°02'0 0.0
2014-Aug-18 19:31N 51°57' E 004°02'0 0.0
2014-Aug-18 18:31N 51°57' E 004°02'0 0.0
2014-Aug-18 17:25N 51°57' E 004°02'0 0.0
2014-Aug-18 16:31N 51°57' E 004°02'0 0.0
2014-Aug-18 15:31N 51°57' E 004°02'0 0.0
2014-Aug-18 14:31N 51°57' E 004°02'0 0.0
2014-Aug-18 13:31N 51°57' E 004°02'1 1.1
2014-Aug-18 12:34N 51°58' E 004°04'5 4.7
2014-Aug-18 11:33N 52°00' E 003°57'9 8.7
2014-Aug-18 10:33N 52°05' E 003°45'1211.6
2014-Aug-18 09:33N 52°16' E 003°47'1313.0
2014-Aug-18 08:33N 52°29' E 003°52'1312.6
2014-Aug-18 07:33N 52°41' E 003°56'1212.2
2014-Aug-18 06:33N 52°53' E 003°58'1211.8
2014-Aug-18 05:33N 53°03' E 004°10'1312.6
2014-Aug-18 04:33N 53°12' E 004°25'1313.2
2014-Aug-18 03:32N 53°24' E 004°33'1312.9
2014-Aug-18 02:33N 53°36' E 004°40'1312.4
2014-Aug-18 01:32N 53°48' E 004°46'25212.0
2014-Aug-17 04:33N 57°26' E 008°31'6111.5
2014-Aug-16 23:16N 57°56' E 010°09'811.8
2014-Aug-16 22:33N 57°56' E 010°25'1212.1
2014-Aug-16 21:33N 57°56' E 010°48'1110.8
2014-Aug-16 20:33N 57°53' E 011°07'1110.8
2014-Aug-16 19:33N 57°45' E 011°21'1110.6
2014-Aug-16 18:33N 57°37' E 011°34'8 8.2
2014-Aug-16 17:33N 57°41' E 011°47'2 2.4
2014-Aug-16 16:32N 57°41' E 011°52'0 0.0
2014-Aug-16 15:32N 57°41' E 011°52'0 0.0
2014-Aug-16 14:32N 57°41' E 011°52'0 0.0
2014-Aug-16 13:32N 57°41' E 011°52'0 0.0
2014-Aug-16 12:32N 57°41' E 011°52'0 0.0
2014-Aug-16 11:32N 57°41' E 011°52'0 0.0
2014-Aug-16 10:32N 57°41' E 011°52'0 0.0
2014-Aug-16 09:32N 57°41' E 011°52'0 0.0
2014-Aug-16 08:32N 57°41' E 011°52'0 0.0
2014-Aug-16 07:32N 57°41' E 011°52'0 0.0
2014-Aug-16 06:32N 57°41' E 011°52'0 0.0
2014-Aug-16 05:32N 57°41' E 011°52'0 0.0
2014-Aug-16 04:32N 57°41' E 011°52'0 0.0
2014-Aug-16 03:33N 57°41' E 011°52'1 1.1
2014-Aug-16 02:33N 57°41' E 011°50'10 9.8
2014-Aug-16 01:34N 57°36' E 011°33'1111.4
2014-Aug-16 00:33N 57°45' E 011°18'1414.3
2014-Aug-15 23:33N 57°55' E 011°00'1413.7
2014-Aug-15 22:34N 57°57' E 010°34'1413.7
2014-Aug-15 21:33N 57°57' E 010°09'1413.5
2014-Aug-15 20:31N 57°51' E 009°44'4213.9
2014-Aug-15 17:27N 57°28' E 008°38'12613.7
2014-Aug-15 08:15N 55°39' E 006°45'913.5
2014-Aug-15 07:33N 55°30' E 006°40'1413.6
2014-Aug-15 06:33N 55°17' E 006°41'1413.6
2014-Aug-15 05:33N 55°03' E 006°42'1413.7
2014-Aug-15 04:33N 54°50' E 006°51'1513.9
2014-Aug-15 03:27N 54°37' E 007°03'1213.8
2014-Aug-15 02:33N 54°26' E 007°14'1313.4
2014-Aug-15 01:33N 54°15' E 007°26'1313.1
2014-Aug-15 00:33N 54°03' E 007°36'1614.2
2014-Aug-14 23:24N 53°52' E 007°56'1112.7
2014-Aug-14 22:33N 53°46' E 008°11'1413.7
2014-Aug-14 21:34N 53°37' E 008°29'1 1.5
2014-Aug-14 20:33N 53°36' E 008°31'0 0.0
2014-Aug-14 19:33N 53°36' E 008°31'0 0.0
2014-Aug-14 18:33N 53°36' E 008°31'0 0.0
2014-Aug-14 17:33N 53°36' E 008°31'0 0.0
2014-Aug-14 16:33N 53°36' E 008°31'0 0.0
2014-Aug-14 15:33N 53°36' E 008°31'0 0.0
2014-Aug-14 14:34N 53°36' E 008°31'0 0.0
2014-Aug-14 13:33N 53°36' E 008°31'0 0.0
2014-Aug-14 12:34N 53°36' E 008°31'0 0.0
2014-Aug-14 11:34N 53°36' E 008°31'0 0.0
2014-Aug-14 10:34N 53°36' E 008°31'0 0.0
2014-Aug-14 09:34N 53°36' E 008°31'0 0.0
2014-Aug-14 08:33N 53°36' E 008°31'0 0.0
2014-Aug-14 07:33N 53°36' E 008°31'0 0.0
2014-Aug-14 06:33N 53°36' E 008°31'0 0.0
2014-Aug-14 05:34N 53°36' E 008°31'0 0.0
2014-Aug-14 04:33N 53°36' E 008°31'0 0.0
2014-Aug-14 03:34N 53°36' E 008°31'0 0.0
2014-Aug-14 02:33N 53°36' E 008°31'0 0.0
2014-Aug-14 01:33N 53°36' E 008°31'0 0.0
2014-Aug-14 00:33N 53°36' E 008°31'0 0.0
2014-Aug-13 23:34N 53°36' E 008°31'0 0.0
2014-Aug-13 22:34N 53°36' E 008°31'0 0.0
2014-Aug-13 21:33N 53°36' E 008°31'0 0.0
2014-Aug-13 20:33N 53°36' E 008°31'0 0.0
2014-Aug-13 19:33N 53°36' E 008°31'0 0.0
2014-Aug-13 18:33N 53°36' E 008°31'0 0.0
2014-Aug-13 17:34N 53°36' E 008°31'0 0.0
2014-Aug-13 16:33N 53°36' E 008°31'0 0.0
2014-Aug-13 15:33N 53°36' E 008°31'0 0.0
2014-Aug-13 14:33N 53°36' E 008°31'0 0.0
2014-Aug-13 13:34N 53°36' E 008°31'0 0.0
2014-Aug-13 12:34N 53°36' E 008°31'0 0.0
2014-Aug-13 11:33N 53°36' E 008°31'1 0.7
2014-Aug-13 10:33N 53°35' E 008°31'7 7.4
2014-Aug-13 09:34N 53°40' E 008°22'1717.4
2014-Aug-13 08:34N 53°51' E 007°59'3114.5
2014-Aug-13 06:26N 53°52' E 007°07'1816.6
2014-Aug-13 05:19N 53°48' E 006°37'1316.3
2014-Aug-13 04:32N 53°44' E 006°16'1616.5
2014-Aug-13 03:33N 53°39' E 005°50'1616.6
2014-Aug-13 02:34N 53°34' E 005°23'1716.6
2014-Aug-13 01:34N 53°28' E 004°57'1616.1
2014-Aug-13 00:34N 53°18' E 004°37'2016.6
2014-Aug-12 23:20N 52°60' E 004°20'1816.6
2014-Aug-12 22:15N 52°44' E 004°05'  
Track history (hours):
 
Tides and Currents Weather Stations Pressure Air Temp Water Temp Dewpoint Dewpoint Depression Visibility Wind Speed Wind Dir Waves Ship Positions

Mathilde Maersk

Last reported at 2014-Aug-22 21:20 UTC. Time now 2014-Aug-22 23:38 UTC.
Position N 38°11' W 009°58'.

Length 367 m; draft 12.2 m.

Type: Ship (hazmat cat B). MMSI: 220597990.

Date/timePositionNaut miles runAvg speedWind from/ knotsBaromVisibWave heightAir tempDewpointWater temp
2014-Aug-22 21:20N 38°11' W 009°58'  
2014-Aug-20 14:33N 50°24' W 000°19'2117.6
2014-Aug-20 13:23N 50°30' E 000°12'1518.2
2014-Aug-20 12:33N 50°36' E 000°33'1818.5
2014-Aug-20 11:33N 50°47' E 000°57'2017.8
2014-Aug-20 10:25N 51°01' E 001°21'1517.5
2014-Aug-20 09:34N 51°10' E 001°39'1716.5
2014-Aug-20 08:33N 51°23' E 001°57'1615.2
2014-Aug-20 07:29N 51°22' E 002°23'1516.3
2014-Aug-20 06:33N 51°25' E 002°47'1514.5
2014-Aug-20 05:33N 51°23' E 003°10'2 2.3
2014-Aug-20 04:32N 51°21' E 003°11'0 0.0
2014-Aug-20 03:31N 51°21' E 003°11'0 0.0
2014-Aug-20 02:31N 51°21' E 003°11'0 0.0
2014-Aug-20 01:31N 51°21' E 003°11'0 0.0
2014-Aug-20 00:28N 51°21' E 003°11'0 0.0
2014-Aug-19 23:32N 51°21' E 003°11'0 0.0
2014-Aug-19 22:31N 51°21' E 003°11'0 0.0
2014-Aug-19 20:28N 51°21' E 003°11'0 0.0
2014-Aug-19 19:10N 51°21' E 003°11'0 0.0
2014-Aug-19 18:32N 51°21' E 003°11'1 1.3
2014-Aug-19 17:33N 51°22' E 003°11'1211.7
2014-Aug-19 16:33N 51°22' E 002°52'7 7.2
2014-Aug-19 15:33N 51°25' E 002°42'1312.6
2014-Aug-19 14:33N 51°37' E 002°50'1312.8
2014-Aug-19 13:31N 51°45' E 003°07'1211.9
2014-Aug-19 12:33N 51°54' E 003°19'2110.4
2014-Aug-19 10:33N 52°04' E 003°49'1010.2
2014-Aug-19 09:33N 51°59' E 004°03'2 1.9
2014-Aug-19 08:31N 51°57' E 004°02'0 0.0
2014-Aug-19 07:31N 51°57' E 004°02'0 0.0
2014-Aug-19 06:31N 51°57' E 004°02'0 0.0
2014-Aug-19 05:28N 51°57' E 004°02'0 0.0
2014-Aug-19 04:31N 51°57' E 004°02'0 0.0
2014-Aug-19 03:31N 51°57' E 004°02'0 0.0
2014-Aug-19 02:31N 51°57' E 004°02'0 0.0
2014-Aug-19 01:31N 51°57' E 004°02'0 0.0
2014-Aug-19 00:31N 51°57' E 004°02'0 0.0
2014-Aug-18 23:25N 51°57' E 004°02'0 0.0
2014-Aug-18 22:31N 51°57' E 004°02'0 0.0
2014-Aug-18 21:28N 51°57' E 004°02'0 0.0
2014-Aug-18 20:25N 51°57' E 004°02'0 0.0
2014-Aug-18 19:31N 51°57' E 004°02'0 0.0
2014-Aug-18 18:31N 51°57' E 004°02'0 0.0
2014-Aug-18 17:25N 51°57' E 004°02'0 0.0
2014-Aug-18 16:31N 51°57' E 004°02'0 0.0
2014-Aug-18 15:31N 51°57' E 004°02'0 0.0
2014-Aug-18 14:31N 51°57' E 004°02'0 0.0
2014-Aug-18 13:31N 51°57' E 004°02'1 1.1
2014-Aug-18 12:34N 51°58' E 004°04'5 4.7
2014-Aug-18 11:33N 52°00' E 003°57'9 8.7
2014-Aug-18 10:33N 52°05' E 003°45'1211.6
2014-Aug-18 09:33N 52°16' E 003°47'1313.0
2014-Aug-18 08:33N 52°29' E 003°52'1312.6
2014-Aug-18 07:33N 52°41' E 003°56'1212.2
2014-Aug-18 06:33N 52°53' E 003°58'1211.8
2014-Aug-18 05:33N 53°03' E 004°10'1312.6
2014-Aug-18 04:33N 53°12' E 004°25'1313.2
2014-Aug-18 03:32N 53°24' E 004°33'1312.9
2014-Aug-18 02:33N 53°36' E 004°40'1312.4
2014-Aug-18 01:32N 53°48' E 004°46'25212.0
2014-Aug-17 04:33N 57°26' E 008°31'6111.5
2014-Aug-16 23:16N 57°56' E 010°09'811.8
2014-Aug-16 22:33N 57°56' E 010°25'1212.1
2014-Aug-16 21:33N 57°56' E 010°48'1110.8
2014-Aug-16 20:33N 57°53' E 011°07'1110.8
2014-Aug-16 19:33N 57°45' E 011°21'1110.6
2014-Aug-16 18:33N 57°37' E 011°34'8 8.2
2014-Aug-16 17:33N 57°41' E 011°47'2 2.4
2014-Aug-16 16:32N 57°41' E 011°52'0 0.0
2014-Aug-16 15:32N 57°41' E 011°52'0 0.0
2014-Aug-16 14:32N 57°41' E 011°52'0 0.0
2014-Aug-16 13:32N 57°41' E 011°52'0 0.0
2014-Aug-16 12:32N 57°41' E 011°52'0 0.0
2014-Aug-16 11:32N 57°41' E 011°52'0 0.0
2014-Aug-16 10:32N 57°41' E 011°52'0 0.0
2014-Aug-16 09:32N 57°41' E 011°52'0 0.0
2014-Aug-16 08:32N 57°41' E 011°52'0 0.0
2014-Aug-16 07:32N 57°41' E 011°52'0 0.0
2014-Aug-16 06:32N 57°41' E 011°52'0 0.0
2014-Aug-16 05:32N 57°41' E 011°52'0 0.0
2014-Aug-16 04:32N 57°41' E 011°52'0 0.0
2014-Aug-16 03:33N 57°41' E 011°52'1 1.1
2014-Aug-16 02:33N 57°41' E 011°50'10 9.8
2014-Aug-16 01:34N 57°36' E 011°33'1111.4
2014-Aug-16 00:33N 57°45' E 011°18'1414.3
2014-Aug-15 23:33N 57°55' E 011°00'1413.7
2014-Aug-15 22:34N 57°57' E 010°34'1413.7
2014-Aug-15 21:33N 57°57' E 010°09'1413.5
2014-Aug-15 20:31N 57°51' E 009°44'4213.9
2014-Aug-15 17:27N 57°28' E 008°38'12613.7
2014-Aug-15 08:15N 55°39' E 006°45'913.5
2014-Aug-15 07:33N 55°30' E 006°40'1413.6
2014-Aug-15 06:33N 55°17' E 006°41'1413.6
2014-Aug-15 05:33N 55°03' E 006°42'1413.7
2014-Aug-15 04:33N 54°50' E 006°51'1513.9
2014-Aug-15 03:27N 54°37' E 007°03'1213.8
2014-Aug-15 02:33N 54°26' E 007°14'1313.4
2014-Aug-15 01:33N 54°15' E 007°26'1313.1
2014-Aug-15 00:33N 54°03' E 007°36'1614.2
2014-Aug-14 23:24N 53°52' E 007°56'1112.7
2014-Aug-14 22:33N 53°46' E 008°11'1413.7
2014-Aug-14 21:34N 53°37' E 008°29'1 1.5
2014-Aug-14 20:33N 53°36' E 008°31'0 0.0
2014-Aug-14 19:33N 53°36' E 008°31'0 0.0
2014-Aug-14 18:33N 53°36' E 008°31'0 0.0
2014-Aug-14 17:33N 53°36' E 008°31'0 0.0
2014-Aug-14 16:33N 53°36' E 008°31'0 0.0
2014-Aug-14 15:33N 53°36' E 008°31'0 0.0
2014-Aug-14 14:34N 53°36' E 008°31'0 0.0
2014-Aug-14 13:33N 53°36' E 008°31'0 0.0
2014-Aug-14 12:34N 53°36' E 008°31'0 0.0
2014-Aug-14 11:34N 53°36' E 008°31'0 0.0
2014-Aug-14 10:34N 53°36' E 008°31'0 0.0
2014-Aug-14 09:34N 53°36' E 008°31'0 0.0
2014-Aug-14 08:33N 53°36' E 008°31'0 0.0
2014-Aug-14 07:33N 53°36' E 008°31'0 0.0
2014-Aug-14 06:33N 53°36' E 008°31'0 0.0
2014-Aug-14 05:34N 53°36' E 008°31'0 0.0
2014-Aug-14 04:33N 53°36' E 008°31'0 0.0
2014-Aug-14 03:34N 53°36' E 008°31'0 0.0
2014-Aug-14 02:33N 53°36' E 008°31'0 0.0
2014-Aug-14 01:33N 53°36' E 008°31'0 0.0
2014-Aug-14 00:33N 53°36' E 008°31'0 0.0
2014-Aug-13 23:34N 53°36' E 008°31'0 0.0
2014-Aug-13 22:34N 53°36' E 008°31'0 0.0
2014-Aug-13 21:33N 53°36' E 008°31'0 0.0
2014-Aug-13 20:33N 53°36' E 008°31'0 0.0
2014-Aug-13 19:33N 53°36' E 008°31'0 0.0
2014-Aug-13 18:33N 53°36' E 008°31'0 0.0
2014-Aug-13 17:34N 53°36' E 008°31'0 0.0
2014-Aug-13 16:33N 53°36' E 008°31'0 0.0
2014-Aug-13 15:33N 53°36' E 008°31'0 0.0
2014-Aug-13 14:33N 53°36' E 008°31'0 0.0
2014-Aug-13 13:34N 53°36' E 008°31'0 0.0
2014-Aug-13 12:34N 53°36' E 008°31'0 0.0
2014-Aug-13 11:33N 53°36' E 008°31'1 0.7
2014-Aug-13 10:33N 53°35' E 008°31'7 7.4
2014-Aug-13 09:34N 53°40' E 008°22'1717.4
2014-Aug-13 08:34N 53°51' E 007°59'3114.5
2014-Aug-13 06:26N 53°52' E 007°07'1816.6
2014-Aug-13 05:19N 53°48' E 006°37'1316.3
2014-Aug-13 04:32N 53°44' E 006°16'1616.5
2014-Aug-13 03:33N 53°39' E 005°50'1616.6
2014-Aug-13 02:34N 53°34' E 005°23'1716.6
2014-Aug-13 01:34N 53°28' E 004°57'1616.1
2014-Aug-13 00:34N 53°18' E 004°37'2016.6
2014-Aug-12 23:20N 52°60' E 004°20'1816.6
2014-Aug-12 22:15N 52°44' E 004°05'  

Dump ship's entire track history